Time,TemperatureF,DewpointF,PressureIn,WindDirection,WindDirectionDegrees,WindSpeedMPH,WindSpeedGustMPH,Humidity,HourlyPrecipIn,Conditions,Clouds,dailyrainin,SoftwareType,DateUTC
2013-05-23 00:01:00,52.1,45.0,29.05,NNE,22,8.2,12.1,76,99.99,,,33.28,Rainwise IP-100,2013-05-23 05:01:00,
2013-05-23 00:06:00,51.9,45.0,29.06,NNE,22,7.9,11.7,76,99.99,,,99.99,Rainwise IP-100,2013-05-23 05:06:00,
2013-05-23 00:11:00,51.8,45.0,29.06,NE,45,8.6,15.6,76,99.99,,,99.99,Rainwise IP-100,2013-05-23 05:11:00,
2013-05-23 00:16:00,51.7,45.0,29.07,NNE,22,4.9,12.6,77,15.36,,,99.99,Rainwise IP-100,2013-05-23 05:16:00,
2013-05-23 00:21:00,51.5,45.0,29.06,NE,45,8.2,11.9,77,99.99,,,5.12,Rainwise IP-100,2013-05-23 05:21:00,
2013-05-23 00:26:00,51.4,44.0,29.06,ENE,67,6.3,11.2,75,99.99,,,99.99,Rainwise IP-100,2013-05-23 05:26:00,
2013-05-23 00:31:00,51.2,45.0,29.07,North,360,3.5,14.0,78,99.99,,,99.99,Rainwise IP-100,2013-05-23 05:31:00,
2013-05-23 00:36:00,51.0,45.0,29.07,NNE,22,6.1,9.1,79,99.99,,,99.99,Rainwise IP-100,2013-05-23 05:36:00,
2013-05-23 00:41:00,50.9,45.0,29.07,NNE,22,5.6,9.8,79,99.99,,,99.99,Rainwise IP-100,2013-05-23 05:41:00,
2013-05-23 00:46:00,50.8,45.0,29.07,NNE,22,6.1,11.0,80,99.99,,,99.99,Rainwise IP-100,2013-05-23 05:46:00,
2013-05-23 00:51:00,50.5,45.0,29.07,North,360,5.6,8.6,80,99.99,,,99.84,Rainwise IP-100,2013-05-23 05:51:00,
2013-05-23 00:56:00,50.3,45.0,29.08,North,360,4.9,11.4,81,99.99,,,99.99,Rainwise IP-100,2013-05-23 05:56:00,
2013-05-23 01:01:00,50.1,44.0,29.08,North,360,4.4,10.0,81,99.99,,,99.99,Rainwise IP-100,2013-05-23 06:01:00,
2013-05-23 01:06:00,49.8,45.0,29.08,NNE,22,3.3,11.9,82,99.99,,,99.99,Rainwise IP-100,2013-05-23 06:06:00,
2013-05-23 01:11:00,49.5,45.0,29.08,NNW,337,7.9,14.9,82,99.99,,,99.99,Rainwise IP-100,2013-05-23 06:11:00,
2013-05-23 01:16:00,49.3,44.0,29.08,NNE,22,4.4,11.2,83,99.99,,,99.99,Rainwise IP-100,2013-05-23 06:16:00,
2013-05-23 01:21:00,49.1,44.0,29.09,NNW,337,4.0,13.5,84,99.99,,,76.80,Rainwise IP-100,2013-05-23 06:21:00,
2013-05-23 01:26:00,48.9,44.0,29.08,NNE,22,4.9,11.4,84,99.99,,,99.99,Rainwise IP-100,2013-05-23 06:26:00,
2013-05-23 01:31:00,48.7,45.0,29.09,NNE,22,3.5,14.5,85,99.99,,,99.99,Rainwise IP-100,2013-05-23 06:31:00,
2013-05-23 01:36:00,48.7,45.0,29.09,NNE,22,6.1,11.9,86,99.99,,,99.99,Rainwise IP-100,2013-05-23 06:36:00,
2013-05-23 01:41:00,48.6,45.0,29.09,NNE,22,3.0,13.1,86,99.99,,,99.99,Rainwise IP-100,2013-05-23 06:41:00,
2013-05-23 01:46:00,48.3,44.0,29.09,NW,315,3.3,11.2,86,99.99,,,10.24,Rainwise IP-100,2013-05-23 06:46:00,
2013-05-23 01:51:00,48.0,45.0,29.10,NNE,22,5.8,14.2,87,99.99,,,99.99,Rainwise IP-100,2013-05-23 06:51:00,
2013-05-23 01:56:00,47.8,45.0,29.09,NNE,22,4.2,14.0,88,99.99,,,99.99,Rainwise IP-100,2013-05-23 06:56:00,
2013-05-23 02:01:00,47.7,44.0,29.10,NNW,337,3.7,15.6,88,99.99,,,99.99,Rainwise IP-100,2013-05-23 07:01:00,
2013-05-23 02:06:00,47.6,44.0,29.10,NNE,22,6.5,11.0,89,99.99,,,99.99,Rainwise IP-100,2013-05-23 07:06:00,
2013-05-23 02:11:00,47.6,44.0,29.10,NNE,22,6.3,13.1,89,99.99,,,48.64,Rainwise IP-100,2013-05-23 07:11:00,
2013-05-23 02:16:00,47.9,45.0,29.11,NE,45,7.9,14.0,89,99.99,,,99.99,Rainwise IP-100,2013-05-23 07:16:00,
2013-05-23 02:21:00,47.9,45.0,29.12,NNE,22,3.7,14.2,88,99.99,,,99.99,Rainwise IP-100,2013-05-23 07:21:00,
2013-05-23 02:26:00,47.8,45.0,29.12,NNE,22,3.7,13.1,88,99.99,,,99.99,Rainwise IP-100,2013-05-23 07:26:00,
2013-05-23 02:31:00,47.7,44.0,29.12,NNE,22,6.3,15.9,88,99.99,,,99.99,Rainwise IP-100,2013-05-23 07:31:00,
2013-05-23 02:36:00,47.7,44.0,29.11,NNE,22,10.5,14.7,88,99.99,,,99.99,Rainwise IP-100,2013-05-23 07:36:00,
2013-05-23 02:41:00,47.7,44.0,29.12,NNE,22,5.4,13.8,88,99.99,,,20.48,Rainwise IP-100,2013-05-23 07:41:00,
2013-05-23 02:46:00,47.6,44.0,29.12,NNE,22,7.7,17.7,88,99.99,,,99.99,Rainwise IP-100,2013-05-23 07:46:00,
2013-05-23 02:51:00,47.6,44.0,29.12,NNE,22,8.9,14.2,88,99.99,,,99.99,Rainwise IP-100,2013-05-23 07:51:00,
2013-05-23 02:56:00,47.5,43.0,29.12,NE,45,5.4,12.1,85,99.99,,,99.99,Rainwise IP-100,2013-05-23 07:56:00,
2013-05-23 03:01:00,47.6,44.0,29.12,NNE,22,8.6,13.5,88,99.99,,,99.99,Rainwise IP-100,2013-05-23 08:01:00,
2013-05-23 03:06:00,47.5,44.0,29.13,NNE,22,8.4,12.8,88,99.99,,,58.88,Rainwise IP-100,2013-05-23 08:06:00,
2013-05-23 03:11:00,47.3,44.0,29.13,NNE,22,6.5,11.4,88,99.99,,,99.99,Rainwise IP-100,2013-05-23 08:11:00,
2013-05-23 03:16:00,47.3,44.0,29.13,North,360,4.0,14.5,88,99.99,,,99.99,Rainwise IP-100,2013-05-23 08:16:00,
2013-05-23 03:21:00,47.1,43.0,29.14,NNE,22,6.8,14.7,89,87.04,,,99.99,Rainwise IP-100,2013-05-23 08:21:00,
2013-05-23 03:26:00,46.9,43.0,29.14,NNE,22,4.2,11.0,89,99.99,,,99.99,Rainwise IP-100,2013-05-23 08:26:00,
2013-05-23 03:31:00,46.8,43.0,29.14,NNW,337,10.7,14.5,89,10.24,,,99.99,Rainwise IP-100,2013-05-23 08:31:00,
2013-05-23 03:36:00,46.8,43.0,29.14,NNE,22,7.5,18.7,89,99.99,,,97.28,Rainwise IP-100,2013-05-23 08:36:00,
2013-05-23 03:41:00,46.7,43.0,29.15,North,360,7.2,12.1,89,99.99,,,99.99,Rainwise IP-100,2013-05-23 08:41:00,
2013-05-23 03:46:00,46.5,43.0,29.15,NNE,22,4.2,14.5,89,99.99,,,99.99,Rainwise IP-100,2013-05-23 08:46:00,
2013-05-23 03:51:00,46.4,43.0,29.15,North,360,7.5,12.4,89,99.99,,,99.99,Rainwise IP-100,2013-05-23 08:51:00,
2013-05-23 03:56:00,46.3,43.0,29.15,NNE,22,6.5,14.2,89,87.04,,,99.99,Rainwise IP-100,2013-05-23 08:56:00,
2013-05-23 04:01:00,46.3,43.0,29.15,NNE,22,6.8,14.7,89,99.99,,,2.56,Rainwise IP-100,2013-05-23 09:01:00,
2013-05-23 04:06:00,46.2,43.0,29.16,North,360,5.4,13.1,89,87.04,,,92.16,Rainwise IP-100,2013-05-23 09:06:00,
2013-05-23 04:11:00,46.1,43.0,29.16,NNE,22,5.8,12.4,89,99.99,,,99.99,Rainwise IP-100,2013-05-23 09:11:00,
2013-05-23 04:16:00,46.0,43.0,29.17,NNE,22,4.9,11.4,89,99.99,,,99.99,Rainwise IP-100,2013-05-23 09:16:00,
2013-05-23 04:21:00,46.0,43.0,29.17,NW,315,3.3,15.2,89,99.99,,,99.99,Rainwise IP-100,2013-05-23 09:21:00,
2013-05-23 04:26:00,45.9,43.0,29.17,NNE,22,5.6,11.4,89,99.99,,,99.99,Rainwise IP-100,2013-05-23 09:26:00,
2013-05-23 04:31:00,45.8,43.0,29.17,NNE,22,7.9,11.9,89,99.99,,,58.88,Rainwise IP-100,2013-05-23 09:31:00,
2013-05-23 04:36:00,45.8,43.0,29.17,NNE,22,6.5,11.2,89,9.72,,,99.99,Rainwise IP-100,2013-05-23 09:36:00,
2013-05-23 04:41:00,46.0,43.0,29.18,NNE,22,5.6,11.9,89,15.36,,,99.99,Rainwise IP-100,2013-05-23 09:41:00,
2013-05-23 04:46:00,45.9,42.0,29.17,NNE,22,7.0,11.2,88,67.08,,,99.99,Rainwise IP-100,2013-05-23 09:46:00,
2013-05-23 04:51:00,45.6,42.0,29.18,NNE,22,7.2,12.1,87,99.99,,,99.99,Rainwise IP-100,2013-05-23 09:51:00,
2013-05-23 04:56:00,45.6,42.0,29.18,NE,45,7.0,9.3,87,99.99,,,99.99,Rainwise IP-100,2013-05-23 09:56:00,
2013-05-23 05:01:00,45.6,42.0,29.19,NNE,22,9.1,13.3,87,46.08,,,99.99,Rainwise IP-100,2013-05-23 10:01:00,
2013-05-23 05:06:00,45.6,42.0,29.19,NNE,22,9.6,13.5,86,99.99,,,99.99,Rainwise IP-100,2013-05-23 10:06:00,
2013-05-23 05:11:00,45.6,41.0,29.19,NNE,22,3.5,13.8,85,99.99,,,99.99,Rainwise IP-100,2013-05-23 10:11:00,
2013-05-23 05:16:00,45.4,41.0,29.19,North,360,2.8,11.4,85,99.99,,,99.99,Rainwise IP-100,2013-05-23 10:16:00,
2013-05-23 05:21:00,45.2,40.0,29.20,North,360,4.2,14.5,84,99.99,,,99.99,Rainwise IP-100,2013-05-23 10:21:00,
2013-05-23 05:26:00,45.1,39.0,29.20,NNW,337,7.5,17.0,81,10.24,,,99.99,Rainwise IP-100,2013-05-23 10:26:00,
2013-05-23 05:29:00,45.2,40.0,29.20,NNE,22,8.2,17.0,83,99.99,,,99.99,Rainwise IP-100,2013-05-23 10:29:00,
2013-05-23 05:34:00,45.1,40.0,29.20,NNE,22,6.5,15.6,82,99.99,,,99.99,Rainwise IP-100,2013-05-23 10:34:00,
2013-05-23 05:39:00,45.0,40.0,29.20,NE,45,5.8,13.8,83,99.99,,,99.99,Rainwise IP-100,2013-05-23 10:39:00,
2013-05-23 05:44:00,45.0,40.0,29.21,North,360,6.3,15.9,83,99.99,,,43.52,Rainwise IP-100,2013-05-23 10:44:00,
2013-05-23 05:49:00,44.7,39.0,29.21,NNE,22,13.3,13.3,80,99.99,,,99.99,Rainwise IP-100,2013-05-23 10:49:00,
2013-05-23 05:54:00,44.9,40.0,29.21,NNE,22,7.0,13.3,83,60.92,,,99.99,Rainwise IP-100,2013-05-23 10:54:00,
2013-05-23 05:59:00,44.9,40.0,29.21,NNE,22,5.8,13.8,82,99.99,,,99.99,Rainwise IP-100,2013-05-23 10:59:00,
2013-05-23 06:04:00,44.9,40.0,29.21,NNE,22,7.0,11.7,82,99.99,,,99.99,Rainwise IP-100,2013-05-23 11:04:00,
2013-05-23 06:09:00,44.8,40.0,29.22,North,360,9.1,14.2,82,99.99,,,99.99,Rainwise IP-100,2013-05-23 11:09:00,
2013-05-23 06:14:00,44.8,39.0,29.22,NNE,22,9.1,14.7,81,66.56,,,99.99,Rainwise IP-100,2013-05-23 11:14:00,
2013-05-23 06:19:00,44.8,39.0,29.22,NNE,22,7.9,13.8,81,35.84,,,99.99,Rainwise IP-100,2013-05-23 11:19:00,
2013-05-23 06:24:00,44.6,39.0,29.23,North,360,5.1,12.8,81,99.99,,,99.99,Rainwise IP-100,2013-05-23 11:24:00,
2013-05-23 06:29:00,44.6,39.0,29.23,NNE,22,6.5,13.1,81,99.99,,,87.04,Rainwise IP-100,2013-05-23 11:29:00,
2013-05-23 06:34:00,44.7,39.0,29.23,North,360,6.1,16.8,80,99.99,,,99.99,Rainwise IP-100,2013-05-23 11:34:00,
2013-05-23 06:39:00,44.9,39.0,29.23,NNE,22,7.0,15.4,79,99.99,,,99.99,Rainwise IP-100,2013-05-23 11:39:00,
2013-05-23 06:44:00,45.0,39.0,29.23,NNE,22,7.2,15.2,79,99.99,,,20.48,Rainwise IP-100,2013-05-23 11:44:00,
2013-05-23 06:49:00,45.0,38.0,29.24,NE,45,9.3,17.5,78,99.99,,,99.99,Rainwise IP-100,2013-05-23 11:49:00,
2013-05-23 06:54:00,45.1,38.0,29.25,NNE,22,7.9,13.1,78,99.99,,,99.99,Rainwise IP-100,2013-05-23 11:54:00,
2013-05-23 06:59:00,45.3,38.0,29.25,NNE,22,7.0,13.8,77,99.99,,,99.99,Rainwise IP-100,2013-05-23 11:59:00,
2013-05-23 07:04:00,45.3,38.0,29.25,NE,45,9.8,14.5,76,46.08,,,69.12,Rainwise IP-100,2013-05-23 12:04:00,
2013-05-23 07:09:00,45.4,38.0,29.25,NE,45,7.7,13.1,76,99.99,,,99.99,Rainwise IP-100,2013-05-23 12:09:00,
2013-05-23 07:14:00,45.6,38.0,29.25,NNE,22,6.1,18.0,75,99.99,,,99.99,Rainwise IP-100,2013-05-23 12:14:00,
2013-05-23 07:19:00,45.8,38.0,29.25,NE,45,5.8,13.8,74,99.99,,,99.99,Rainwise IP-100,2013-05-23 12:19:00,
2013-05-23 07:24:00,46.0,38.0,29.26,North,360,7.9,15.2,74,99.99,,,99.99,Rainwise IP-100,2013-05-23 12:24:00,
2013-05-23 07:29:00,45.9,38.0,29.26,NNE,22,7.2,15.6,73,99.99,,,99.99,Rainwise IP-100,2013-05-23 12:29:00,
2013-05-23 07:34:00,45.7,38.0,29.26,NNE,22,6.3,12.4,73,99.99,,,99.99,Rainwise IP-100,2013-05-23 12:34:00,
2013-05-23 07:39:00,45.8,38.0,29.27,NNE,22,8.9,14.5,74,99.99,,,81.92,Rainwise IP-100,2013-05-23 12:39:00,
2013-05-23 07:44:00,45.8,38.0,29.27,NNE,22,8.2,14.7,73,99.99,,,99.99,Rainwise IP-100,2013-05-23 12:44:00,
2013-05-23 07:49:00,45.8,38.0,29.27,NE,45,9.1,13.5,73,99.99,,,99.99,Rainwise IP-100,2013-05-23 12:49:00,
2013-05-23 07:54:00,45.9,37.0,29.27,NNE,22,7.2,15.2,72,99.99,,,33.28,Rainwise IP-100,2013-05-23 12:54:00,
2013-05-23 07:59:00,46.2,37.0,29.27,NE,45,13.1,17.3,72,99.99,,,99.99,Rainwise IP-100,2013-05-23 12:59:00,
2013-05-23 08:04:00,46.0,37.0,29.27,NNE,22,10.5,16.3,72,99.99,,,99.99,Rainwise IP-100,2013-05-23 13:04:00,
2013-05-23 08:09:00,45.9,37.0,29.28,NE,45,12.1,21.7,71,10.24,,,99.99,Rainwise IP-100,2013-05-23 13:09:00,
2013-05-23 08:14:00,46.1,37.0,29.28,NNE,22,7.7,17.3,70,99.99,,,99.99,Rainwise IP-100,2013-05-23 13:14:00,
2013-05-23 08:19:00,46.3,36.0,29.28,NNE,22,6.8,16.6,69,99.99,,,92.16,Rainwise IP-100,2013-05-23 13:19:00,
2013-05-23 08:24:00,46.4,36.0,29.27,NNE,22,10.7,21.7,68,99.99,,,99.99,Rainwise IP-100,2013-05-23 13:24:00,
2013-05-23 08:29:00,46.4,36.0,29.28,NNE,22,8.9,20.8,67,99.99,,,99.99,Rainwise IP-100,2013-05-23 13:29:00,
2013-05-23 08:34:00,46.5,36.0,29.28,NNE,22,6.3,19.6,67,99.99,,,99.99,Rainwise IP-100,2013-05-23 13:34:00,
2013-05-23 08:39:00,46.9,36.0,29.28,NNE,22,7.7,17.3,66,99.99,,,99.99,Rainwise IP-100,2013-05-23 13:39:00,
2013-05-23 08:44:00,47.2,36.0,29.29,NE,45,10.7,15.9,65,99.99,,,99.99,Rainwise IP-100,2013-05-23 13:44:00,
2013-05-23 08:49:00,47.8,36.0,29.28,NNE,22,11.4,16.8,61,99.99,,,99.99,Rainwise IP-100,2013-05-23 13:49:00,
2013-05-23 08:54:00,47.5,36.0,29.28,NNE,22,12.6,16.8,65,99.99,,,99.99,Rainwise IP-100,2013-05-23 13:54:00,
2013-05-23 08:59:00,47.5,36.0,29.29,North,360,5.8,16.1,64,99.99,,,99.99,Rainwise IP-100,2013-05-23 13:59:00,
2013-05-23 09:04:00,47.5,36.0,29.29,NNE,22,8.9,18.2,63,87.04,,,30.72,Rainwise IP-100,2013-05-23 14:04:00,
2013-05-23 09:09:00,47.3,35.0,29.29,NE,45,11.9,18.0,62,99.99,,,99.99,Rainwise IP-100,2013-05-23 14:09:00,
2013-05-23 09:14:00,48.4,33.0,29.29,NNE,22,9.1,20.5,57,99.99,,,99.99,Rainwise IP-100,2013-05-23 14:14:00,
2013-05-23 09:19:00,47.3,36.0,29.29,NNE,22,11.7,19.6,63,81.92,,,99.99,Rainwise IP-100,2013-05-23 14:19:00,
2013-05-23 09:24:00,47.3,35.0,29.30,NE,45,10.7,14.5,62,99.99,,,99.99,Rainwise IP-100,2013-05-23 14:24:00,
2013-05-23 09:29:00,47.5,35.0,29.30,NNW,337,8.2,16.3,62,99.99,,,99.99,Rainwise IP-100,2013-05-23 14:29:00,
2013-05-23 09:34:00,47.9,36.0,29.29,NNE,22,11.0,14.9,62,10.24,,,99.99,Rainwise IP-100,2013-05-23 14:34:00,
2013-05-23 09:39:00,48.2,36.0,29.30,NNE,22,9.6,17.7,62,99.99,,,99.99,Rainwise IP-100,2013-05-23 14:39:00,
2013-05-23 09:44:00,48.1,35.0,29.30,NNE,22,9.8,17.5,60,99.99,,,12.80,Rainwise IP-100,2013-05-23 14:44:00,
2013-05-23 09:49:00,48.2,35.0,29.30,NNE,22,10.3,14.9,59,99.99,,,99.99,Rainwise IP-100,2013-05-23 14:49:00,
2013-05-23 09:54:00,48.5,36.0,29.31,NNW,337,6.3,20.3,59,99.99,,,99.99,Rainwise IP-100,2013-05-23 14:54:00,
2013-05-23 09:59:00,48.9,36.0,29.30,North,360,9.6,17.5,59,46.08,,,99.99,Rainwise IP-100,2013-05-23 14:59:00,
2013-05-23 10:04:00,49.0,35.0,29.30,NNE,22,11.7,18.2,58,99.99,,,99.99,Rainwise IP-100,2013-05-23 15:04:00,
2013-05-23 10:09:00,49.1,35.0,29.31,NNE,22,9.1,15.4,57,99.99,,,43.52,Rainwise IP-100,2013-05-23 15:09:00,
2013-05-23 10:14:00,49.3,35.0,29.31,NNE,22,8.2,14.5,56,81.92,,,99.99,Rainwise IP-100,2013-05-23 15:14:00,
2013-05-23 10:19:00,49.3,35.0,29.31,NNE,22,8.9,16.1,56,99.99,,,99.99,Rainwise IP-100,2013-05-23 15:19:00,
2013-05-23 10:24:00,49.3,35.0,29.31,NNE,22,12.1,17.5,56,99.99,,,99.99,Rainwise IP-100,2013-05-23 15:24:00,
2013-05-23 10:29:00,49.4,35.0,29.31,NNE,22,7.7,14.0,56,99.99,,,99.99,Rainwise IP-100,2013-05-23 15:29:00,
2013-05-23 10:34:00,49.5,35.0,29.31,NE,45,5.6,13.3,56,99.99,,,99.99,Rainwise IP-100,2013-05-23 15:34:00,
2013-05-23 10:39:00,50.0,36.0,29.31,NE,45,9.3,14.0,57,81.92,,,99.99,Rainwise IP-100,2013-05-23 15:39:00,
2013-05-23 10:44:00,50.2,36.0,29.31,North,360,6.8,15.2,57,99.99,,,99.99,Rainwise IP-100,2013-05-23 15:44:00,
2013-05-23 10:49:00,50.5,36.0,29.31,NE,45,6.3,16.1,56,99.99,,,99.99,Rainwise IP-100,2013-05-23 15:49:00,
2013-05-23 10:54:00,50.8,36.0,29.31,NNE,22,6.5,13.8,55,99.99,,,99.99,Rainwise IP-100,2013-05-23 15:54:00,
2013-05-23 10:59:00,50.8,36.0,29.31,North,360,7.7,15.4,54,99.99,,,99.99,Rainwise IP-100,2013-05-23 15:59:00,
2013-05-23 11:04:00,51.2,36.0,29.32,NNE,22,7.2,16.1,54,99.99,,,99.99,Rainwise IP-100,2013-05-23 16:04:00,
2013-05-23 11:09:00,51.8,36.0,29.32,North,360,6.5,15.2,53,99.99,,,99.99,Rainwise IP-100,2013-05-23 16:09:00,
2013-05-23 11:14:00,51.9,35.0,29.32,NW,315,6.8,18.0,52,66.56,,,99.99,Rainwise IP-100,2013-05-23 16:14:00,
2013-05-23 11:19:00,52.1,36.0,29.32,NNE,22,11.4,14.9,53,99.99,,,99.99,Rainwise IP-100,2013-05-23 16:19:00,
2013-05-23 11:24:00,53.1,33.0,29.31,NNW,337,12.6,13.1,48,99.99,,,40.02,Rainwise IP-100,2013-05-23 16:24:00,
2013-05-23 11:29:00,52.0,36.0,29.32,NNW,337,9.1,14.9,53,99.99,,,81.92,Rainwise IP-100,2013-05-23 16:29:00,
2013-05-23 11:34:00,52.1,36.0,29.32,NNE,22,9.3,12.1,54,99.99,,,81.92,Rainwise IP-100,2013-05-23 16:34:00,
2013-05-23 11:39:00,51.8,36.0,29.32,NE,45,10.5,14.7,53,30.72,,,87.04,Rainwise IP-100,2013-05-23 16:39:00,
2013-05-23 11:44:00,52.0,36.0,29.32,NNE,22,7.5,12.1,53,76.80,,,94.72,Rainwise IP-100,2013-05-23 16:44:00,
2013-05-23 11:49:00,52.2,35.0,29.32,NNE,22,10.3,15.2,52,92.16,,,99.99,Rainwise IP-100,2013-05-23 16:49:00,
2013-05-23 11:54:00,52.5,36.0,29.32,NW,315,4.9,11.7,53,76.80,,,99.99,Rainwise IP-100,2013-05-23 16:54:00,
2013-05-23 11:59:00,53.2,36.0,29.32,NNW,337,5.1,15.2,53,30.72,,,99.99,Rainwise IP-100,2013-05-23 16:59:00,
2013-05-23 12:04:00,53.4,36.0,29.32,NNE,22,13.3,16.8,51,0.00,,,99.99,Rainwise IP-100,2013-05-23 17:04:00,
2013-05-23 12:09:00,52.8,35.0,29.32,NE,45,9.8,15.2,50,92.16,,,99.99,Rainwise IP-100,2013-05-23 17:09:00,
2013-05-23 12:14:00,52.7,35.0,29.33,NNW,337,8.4,13.1,51,92.16,,,99.99,Rainwise IP-100,2013-05-23 17:14:00,
2013-05-23 12:19:00,53.4,36.0,29.33,North,360,10.3,15.4,51,0.00,,,99.99,Rainwise IP-100,2013-05-23 17:19:00,
2013-05-23 12:24:00,53.8,36.0,29.33,WNW,292,9.1,12.4,49,0.00,,,99.99,Rainwise IP-100,2013-05-23 17:24:00,
2013-05-23 12:29:00,53.8,36.0,29.32,NE,45,9.6,13.5,49,0.00,,,99.99,Rainwise IP-100,2013-05-23 17:29:00,
2013-05-23 12:34:00,54.1,36.0,29.33,North,360,6.8,14.5,49,0.00,,,99.99,Rainwise IP-100,2013-05-23 17:34:00,
2013-05-23 12:39:00,54.3,36.0,29.33,NE,45,8.6,12.8,49,0.00,,,99.99,Rainwise IP-100,2013-05-23 17:39:00,
2013-05-23 12:44:00,54.8,36.0,29.33,North,360,7.2,10.0,48,0.00,,,99.99,Rainwise IP-100,2013-05-23 17:44:00,
2013-05-23 12:49:00,54.9,35.0,29.32,ENE,67,9.8,15.4,46,0.00,,,99.99,Rainwise IP-100,2013-05-23 17:49:00,
2013-05-23 12:54:00,54.4,35.0,29.33,NNE,22,12.4,15.6,46,0.00,,,99.99,Rainwise IP-100,2013-05-23 17:54:00,
2013-05-23 12:59:00,54.6,35.0,29.33,North,360,4.4,12.4,47,99.99,,,99.99,Rainwise IP-100,2013-05-23 17:59:00,
2013-05-23 13:04:00,55.6,36.0,29.33,NNE,22,4.2,15.6,46,99.99,,,99.99,Rainwise IP-100,2013-05-23 18:04:00,
2013-05-23 13:09:00,56.2,35.0,29.33,NNE,22,9.1,16.1,45,99.99,,,99.99,Rainwise IP-100,2013-05-23 18:09:00,
2013-05-23 13:14:00,56.0,35.0,29.33,NNW,337,6.1,10.3,44,99.99,,,99.99,Rainwise IP-100,2013-05-23 18:14:00,
2013-05-23 13:19:00,56.1,33.0,29.33,NNE,22,8.6,15.9,43,99.99,,,99.99,Rainwise IP-100,2013-05-23 18:19:00,
2013-05-23 13:24:00,56.3,35.0,29.33,NE,45,5.8,14.5,44,99.99,,,99.99,Rainwise IP-100,2013-05-23 18:24:00,
2013-05-23 14:30:00,58.1,35.0,29.32,NE,45,9.1,0.0,41,0.00,,,0.00,Rainwise IP-100,2013-05-23 19:30:00,
2013-05-23 14:35:00,57.5,35.0,29.33,NE,45,9.1,12.6,41,99.99,,,48.64,Rainwise IP-100,2013-05-23 19:35:00,
2013-05-23 14:40:00,57.6,33.0,29.33,North,360,5.4,12.1,40,99.99,,,99.99,Rainwise IP-100,2013-05-23 19:40:00,
2013-05-23 14:45:00,58.0,35.0,29.33,NNE,22,7.9,10.3,40,99.99,,,99.99,Rainwise IP-100,2013-05-23 19:45:00,
2013-05-23 14:50:00,58.8,35.0,29.33,WNW,292,4.2,11.4,40,70.22,,,99.99,Rainwise IP-100,2013-05-23 19:50:00,
2013-05-23 14:55:00,59.1,35.0,29.32,NE,45,5.4,15.4,40,99.99,,,99.99,Rainwise IP-100,2013-05-23 19:55:00,
2013-05-23 15:00:00,58.9,35.0,29.33,NNE,22,7.2,14.2,40,99.99,,,99.99,Rainwise IP-100,2013-05-23 20:00:00,
2013-05-23 15:05:00,58.6,35.0,29.32,North,360,4.4,13.8,40,99.99,,,99.99,Rainwise IP-100,2013-05-23 20:05:00,
2013-05-23 15:10:00,59.2,35.0,29.33,NNE,22,7.9,15.6,40,20.48,,,99.99,Rainwise IP-100,2013-05-23 20:10:00,
2013-05-23 15:15:00,59.2,35.0,29.33,NNE,22,10.3,15.4,39,99.99,,,99.99,Rainwise IP-100,2013-05-23 20:15:00,
2013-05-23 15:20:00,58.8,33.0,29.33,NE,45,6.8,14.2,38,99.99,,,12.80,Rainwise IP-100,2013-05-23 20:20:00,
2013-05-23 15:25:00,59.1,35.0,29.32,NE,45,6.3,14.2,40,99.99,,,99.99,Rainwise IP-100,2013-05-23 20:25:00,
2013-05-23 15:30:00,60.5,33.0,29.32,NE,45,14.7,17.7,36,99.99,,,99.99,Rainwise IP-100,2013-05-23 20:30:00,
2013-05-23 15:35:00,59.5,35.0,29.33,NE,45,7.9,16.6,39,99.99,,,99.99,Rainwise IP-100,2013-05-23 20:35:00,
2013-05-23 15:40:00,61.1,33.0,29.32,North,0,6.5,12.8,35,99.99,,,99.99,Rainwise IP-100,2013-05-23 20:40:00,
2013-05-23 15:45:00,61.8,35.0,29.32,NNW,337,8.6,12.6,35,99.99,,,37.79,Rainwise IP-100,2013-05-23 20:45:00,
2013-05-23 15:50:00,60.3,36.0,29.33,NE,45,4.2,11.0,39,99.99,,,51.20,Rainwise IP-100,2013-05-23 20:50:00,
2013-05-23 15:55:00,60.2,35.0,29.33,NE,45,5.6,11.0,38,99.99,,,58.88,Rainwise IP-100,2013-05-23 20:55:00,
2013-05-23 16:00:00,60.2,33.0,29.32,NNE,22,5.8,14.7,36,99.99,,,79.36,Rainwise IP-100,2013-05-23 21:00:00,
2013-05-23 16:05:00,60.1,33.0,29.32,NNE,22,5.6,10.0,36,99.99,,,84.48,Rainwise IP-100,2013-05-23 21:05:00,
2013-05-23 16:10:00,60.3,33.0,29.32,NW,315,6.8,14.2,36,76.80,,,92.16,Rainwise IP-100,2013-05-23 21:10:00,
2013-05-23 16:15:00,60.5,35.0,29.33,NNE,22,7.0,13.3,37,99.99,,,99.99,Rainwise IP-100,2013-05-23 21:15:00,
2013-05-23 16:20:00,60.7,33.0,29.32,NNE,22,5.8,12.1,36,81.92,,,99.99,Rainwise IP-100,2013-05-23 21:20:00,
2013-05-23 16:25:00,60.8,33.0,29.32,NE,45,4.2,9.6,35,99.99,,,99.99,Rainwise IP-100,2013-05-23 21:25:00,
2013-05-23 16:30:00,61.1,33.0,29.32,NE,45,12.6,12.6,36,99.99,,,99.99,Rainwise IP-100,2013-05-23 21:30:00,
2013-05-23 16:35:00,60.8,33.0,29.32,NNE,22,14.5,16.3,36,99.99,,,99.99,Rainwise IP-100,2013-05-23 21:35:00,
2013-05-23 16:40:00,60.3,33.0,29.32,NE,45,7.2,16.3,36,99.99,,,99.99,Rainwise IP-100,2013-05-23 21:40:00,
2013-05-23 16:45:00,60.4,33.0,29.32,North,360,5.4,11.7,36,99.99,,,99.99,Rainwise IP-100,2013-05-23 21:45:00,
2013-05-23 16:50:00,60.9,33.0,29.32,NNE,22,10.5,15.4,36,99.99,,,99.99,Rainwise IP-100,2013-05-23 21:50:00,
2013-05-23 16:55:00,60.9,33.0,29.31,NE,45,6.3,13.3,36,99.99,,,99.99,Rainwise IP-100,2013-05-23 21:55:00,
2013-05-23 17:00:00,60.8,33.0,29.31,NE,45,9.3,12.6,36,99.99,,,99.99,Rainwise IP-100,2013-05-23 22:00:00,
2013-05-23 17:05:00,60.8,33.0,29.32,NE,45,4.7,12.6,36,99.99,,,99.99,Rainwise IP-100,2013-05-23 22:05:00,
2013-05-23 17:10:00,60.9,33.0,29.32,NNE,22,5.4,12.1,36,99.99,,,99.99,Rainwise IP-100,2013-05-23 22:10:00,
2013-05-23 17:15:00,61.1,35.0,29.31,NNE,22,6.8,12.6,37,99.99,,,99.99,Rainwise IP-100,2013-05-23 22:15:00,
2013-05-23 17:20:00,61.5,35.0,29.31,NNE,22,8.9,12.4,37,99.99,,,99.99,Rainwise IP-100,2013-05-23 22:20:00,
2013-05-23 17:25:00,61.6,35.0,29.31,NNE,22,4.9,12.1,36,99.99,,,99.99,Rainwise IP-100,2013-05-23 22:25:00,
2013-05-23 17:30:00,61.9,35.0,29.32,NW,315,4.9,10.0,36,99.99,,,7.68,Rainwise IP-100,2013-05-23 22:30:00,
2013-05-23 17:35:00,62.9,36.0,29.32,ENE,67,5.4,11.7,36,99.99,,,53.76,Rainwise IP-100,2013-05-23 22:35:00,
2013-05-23 17:40:00,62.6,35.0,29.32,NNE,22,5.6,13.3,35,99.99,,,99.99,Rainwise IP-100,2013-05-23 22:40:00,
2013-05-23 17:45:00,62.3,35.0,29.32,NNE,22,2.8,10.3,35,99.99,,,99.99,Rainwise IP-100,2013-05-23 22:45:00,
2013-05-23 17:50:00,62.5,33.0,29.33,NNE,22,8.2,13.3,34,99.99,,,99.99,Rainwise IP-100,2013-05-23 22:50:00,
2013-05-23 17:55:00,61.9,32.0,29.32,NE,45,4.4,9.6,33,99.99,,,99.99,Rainwise IP-100,2013-05-23 22:55:00,
2013-05-23 18:00:00,61.6,32.0,29.33,ENE,67,7.5,13.1,33,99.99,,,99.99,Rainwise IP-100,2013-05-23 23:00:00,
2013-05-23 18:05:00,61.6,32.0,29.33,NE,45,11.0,12.6,33,99.99,,,99.99,Rainwise IP-100,2013-05-23 23:05:00,
2013-05-23 18:10:00,61.9,32.0,29.32,NNE,22,10.0,11.2,33,99.99,,,99.99,Rainwise IP-100,2013-05-23 23:10:00,
2013-05-23 18:15:00,62.0,32.0,29.32,NE,45,7.7,16.1,32,99.99,,,99.99,Rainwise IP-100,2013-05-23 23:15:00,
2013-05-23 18:20:00,61.9,31.0,29.32,ENE,67,10.3,12.1,30,99.99,,,99.99,Rainwise IP-100,2013-05-23 23:20:00,
2013-05-23 18:25:00,61.7,31.0,29.33,NE,45,5.6,12.8,31,76.80,,,99.99,Rainwise IP-100,2013-05-23 23:25:00,
2013-05-23 18:30:00,61.6,31.0,29.33,ENE,67,11.9,11.9,31,92.16,,,99.99,Rainwise IP-100,2013-05-23 23:30:00,
2013-05-23 18:35:00,61.5,31.0,29.33,NE,45,6.5,11.9,31,99.99,,,99.99,Rainwise IP-100,2013-05-23 23:35:00,
2013-05-23 18:40:00,61.5,31.0,29.32,ENE,67,9.3,16.6,31,99.99,,,99.99,Rainwise IP-100,2013-05-23 23:40:00,
2013-05-23 18:45:00,61.4,31.0,29.33,ENE,67,7.9,11.7,31,99.99,,,99.99,Rainwise IP-100,2013-05-23 23:45:00,
2013-05-23 18:50:00,61.5,31.0,29.33,NNE,22,7.0,9.3,31,99.99,,,99.99,Rainwise IP-100,2013-05-23 23:50:00,
2013-05-23 18:55:00,61.6,31.0,29.33,NE,45,7.5,10.5,31,99.99,,,99.99,Rainwise IP-100,2013-05-23 23:55:00,
2013-05-23 19:00:00,61.5,32.0,29.33,NE,45,6.3,10.7,32,99.99,,,99.99,Rainwise IP-100,2013-05-24 00:00:00,
2013-05-23 19:05:00,61.6,32.0,29.33,West,270,1.6,7.9,33,92.16,,,99.99,Rainwise IP-100,2013-05-24 00:05:00,
2013-05-23 19:10:00,61.8,32.0,29.33,ENE,67,6.1,11.2,33,99.99,,,99.99,Rainwise IP-100,2013-05-24 00:10:00,
2013-05-23 19:15:00,61.6,32.0,29.33,NE,45,4.0,9.8,33,99.99,,,99.99,Rainwise IP-100,2013-05-24 00:15:00,
2013-05-23 19:20:00,61.4,33.0,29.33,NNE,22,9.3,12.4,34,99.99,,,99.99,Rainwise IP-100,2013-05-24 00:20:00,
2013-05-23 19:25:00,61.6,32.0,29.33,ENE,67,4.4,15.4,33,99.99,,,99.99,Rainwise IP-100,2013-05-24 00:25:00,
2013-05-23 19:30:00,61.3,33.0,29.32,NE,45,4.9,8.4,34,76.80,,,99.99,Rainwise IP-100,2013-05-24 00:30:00,
2013-05-23 19:35:00,61.1,32.0,29.32,NNE,22,7.0,11.4,34,99.99,,,99.99,Rainwise IP-100,2013-05-24 00:35:00,
2013-05-23 19:40:00,61.2,32.0,29.33,NE,45,6.8,12.4,33,99.99,,,99.99,Rainwise IP-100,2013-05-24 00:40:00,
2013-05-23 19:45:00,61.0,32.0,29.33,ENE,67,8.4,12.1,33,99.99,,,99.99,Rainwise IP-100,2013-05-24 00:45:00,
2013-05-23 19:50:00,60.9,32.0,29.33,NE,45,6.8,11.4,34,61.44,,,99.99,Rainwise IP-100,2013-05-24 00:50:00,
2013-05-23 19:55:00,60.7,33.0,29.33,ENE,67,7.7,12.6,35,99.99,,,25.60,Rainwise IP-100,2013-05-24 00:55:00,
2013-05-23 20:00:00,60.5,33.0,29.33,ENE,67,6.1,11.4,35,81.92,,,99.99,Rainwise IP-100,2013-05-24 01:00:00,
2013-05-23 20:05:00,60.2,32.0,29.33,ENE,67,7.2,9.6,35,99.99,,,99.99,Rainwise IP-100,2013-05-24 01:05:00,
2013-05-23 20:10:00,60.1,32.0,29.33,ENE,67,8.2,10.3,35,99.99,,,99.99,Rainwise IP-100,2013-05-24 01:10:00,
2013-05-23 20:15:00,60.0,33.0,29.33,ENE,67,7.0,9.6,36,99.99,,,99.99,Rainwise IP-100,2013-05-24 01:15:00,
2013-05-23 20:20:00,59.8,33.0,29.33,ENE,67,8.4,11.2,36,99.99,,,99.99,Rainwise IP-100,2013-05-24 01:20:00,
2013-05-23 20:25:00,59.6,33.0,29.33,ENE,67,7.0,9.6,37,99.99,,,99.99,Rainwise IP-100,2013-05-24 01:25:00,
2013-05-23 20:30:00,59.3,33.0,29.33,ENE,67,8.6,10.5,37,99.99,,,99.99,Rainwise IP-100,2013-05-24 01:30:00,
2013-05-23 20:35:00,59.1,33.0,29.34,ENE,67,6.1,10.0,37,99.99,,,99.99,Rainwise IP-100,2013-05-24 01:35:00,
2013-05-23 20:40:00,59.0,32.0,29.34,ENE,67,7.0,10.5,36,99.99,,,99.99,Rainwise IP-100,2013-05-24 01:40:00,
2013-05-23 20:45:00,58.7,32.0,29.34,ENE,67,7.9,10.3,36,83.38,,,99.99,Rainwise IP-100,2013-05-24 01:45:00,
2013-05-23 20:50:00,58.6,32.0,29.34,ENE,67,7.9,10.0,35,99.99,,,99.99,Rainwise IP-100,2013-05-24 01:50:00,
2013-05-23 20:55:00,58.4,31.0,29.34,ENE,67,5.1,9.8,35,99.99,,,99.99,Rainwise IP-100,2013-05-24 01:55:00,
2013-05-23 21:00:00,58.2,32.0,29.34,ENE,67,4.2,6.8,36,99.99,,,99.99,Rainwise IP-100,2013-05-24 02:00:00,
2013-05-23 21:05:00,57.9,32.0,29.34,ENE,67,5.8,7.0,37,99.99,,,99.99,Rainwise IP-100,2013-05-24 02:05:00,
2013-05-23 21:10:00,57.6,32.0,29.34,ENE,67,4.0,6.1,38,99.99,,,99.99,Rainwise IP-100,2013-05-24 02:10:00,
2013-05-23 21:15:00,57.3,33.0,29.34,ENE,67,4.2,5.6,39,99.99,,,99.99,Rainwise IP-100,2013-05-24 02:15:00,
2013-05-23 21:20:00,57.1,33.0,29.34,ENE,67,4.2,6.5,41,99.99,,,99.99,Rainwise IP-100,2013-05-24 02:20:00,
2013-05-23 21:25:00,56.9,35.0,29.35,NE,45,3.7,5.8,43,61.44,,,99.99,Rainwise IP-100,2013-05-24 02:25:00,
2013-05-23 21:30:00,56.6,33.0,29.35,NE,45,3.3,6.1,42,99.99,,,51.20,Rainwise IP-100,2013-05-24 02:30:00,
2013-05-23 21:35:00,56.4,35.0,29.35,NE,45,3.7,5.6,43,99.99,,,99.99,Rainwise IP-100,2013-05-24 02:35:00,
2013-05-23 21:40:00,56.3,33.0,29.35,NE,45,4.0,5.4,42,99.99,,,99.99,Rainwise IP-100,2013-05-24 02:40:00,
2013-05-23 21:45:00,56.3,33.0,29.35,NE,45,4.2,4.7,41,99.99,,,99.99,Rainwise IP-100,2013-05-24 02:45:00,
2013-05-23 21:50:00,56.2,33.0,29.35,ENE,67,3.5,5.8,42,99.99,,,99.99,Rainwise IP-100,2013-05-24 02:50:00,
2013-05-23 21:55:00,56.1,35.0,29.36,NE,45,4.2,6.3,44,99.99,,,99.99,Rainwise IP-100,2013-05-24 02:55:00,
2013-05-23 22:00:00,55.8,35.0,29.36,NE,45,3.0,4.7,45,99.99,,,99.99,Rainwise IP-100,2013-05-24 03:00:00,
2013-05-23 22:05:00,55.5,36.0,29.36,ENE,67,3.5,3.7,46,99.99,,,99.99,Rainwise IP-100,2013-05-24 03:05:00,
2013-05-23 22:10:00,55.7,32.0,29.35,ENE,67,3.5,5.1,39,99.99,,,99.99,Rainwise IP-100,2013-05-24 03:10:00,
2013-05-23 22:15:00,55.1,36.0,29.36,ENE,67,3.3,5.1,47,99.99,,,84.48,Rainwise IP-100,2013-05-24 03:15:00,
2013-05-23 22:20:00,54.9,35.0,29.37,ENE,67,4.2,4.2,46,40.96,,,99.99,Rainwise IP-100,2013-05-24 03:20:00,
2013-05-23 22:25:00,54.9,35.0,29.37,NE,45,3.0,4.4,45,99.99,,,99.99,Rainwise IP-100,2013-05-24 03:25:00,
2013-05-23 22:30:00,54.9,33.0,29.37,NE,45,3.3,4.4,44,99.99,,,99.99,Rainwise IP-100,2013-05-24 03:30:00,
2013-05-23 22:35:00,54.9,33.0,29.38,ENE,67,3.3,4.4,43,99.99,,,20.48,Rainwise IP-100,2013-05-24 03:35:00,
2013-05-23 22:40:00,54.9,33.0,29.38,ENE,67,5.6,6.8,43,99.99,,,66.56,Rainwise IP-100,2013-05-24 03:40:00,
2013-05-23 22:45:00,54.8,33.0,29.38,ENE,67,7.0,9.6,44,97.28,,,99.99,Rainwise IP-100,2013-05-24 03:45:00,
2013-05-23 22:50:00,54.9,33.0,29.38,ENE,67,7.0,8.9,44,99.99,,,99.99,Rainwise IP-100,2013-05-24 03:50:00,
2013-05-23 22:55:00,54.8,35.0,29.38,ENE,67,8.9,9.3,46,99.99,,,99.99,Rainwise IP-100,2013-05-24 03:55:00,
2013-05-23 23:00:00,54.5,36.0,29.38,ENE,67,9.8,12.1,48,99.99,,,99.99,Rainwise IP-100,2013-05-24 04:00:00,
2013-05-23 23:01:00,54.5,36.0,29.38,ENE,67,7.5,11.7,48,99.99,,,0.00,Rainwise IP-100,2013-05-24 04:01:00,
2013-05-23 23:06:00,54.3,36.0,29.38,ENE,67,11.2,11.2,48,51.20,,,99.99,Rainwise IP-100,2013-05-24 04:06:00,
2013-05-23 23:11:00,54.2,35.0,29.38,East,90,7.0,13.1,48,99.99,,,99.99,Rainwise IP-100,2013-05-24 04:11:00,
2013-05-23 23:16:00,54.2,35.0,29.38,East,90,7.9,10.5,47,99.99,,,99.99,Rainwise IP-100,2013-05-24 04:16:00,
2013-05-23 23:21:00,54.2,35.0,29.39,ENE,67,5.8,10.0,47,99.99,,,99.99,Rainwise IP-100,2013-05-24 04:21:00,
2013-05-23 23:26:00,54.1,33.0,29.39,East,90,7.7,9.6,46,42.42,,,99.99,Rainwise IP-100,2013-05-24 04:26:00,
2013-05-23 23:31:00,54.1,33.0,29.39,East,90,6.5,10.3,45,76.80,,,99.99,Rainwise IP-100,2013-05-24 04:31:00,
2013-05-23 23:36:00,54.0,33.0,29.39,SE,135,7.0,9.8,45,61.44,,,15.36,Rainwise IP-100,2013-05-24 04:36:00,
2013-05-23 23:41:00,53.9,33.0,29.39,SE,135,7.5,11.7,45,99.99,,,99.99,Rainwise IP-100,2013-05-24 04:41:00,
2013-05-23 23:46:00,53.7,32.0,29.39,ESE,112,6.3,11.4,45,99.99,,,99.99,Rainwise IP-100,2013-05-24 04:46:00,
2013-05-23 23:51:00,53.4,32.0,29.39,ESE,112,8.2,11.2,45,99.99,,,99.99,Rainwise IP-100,2013-05-24 04:51:00,
2013-05-23 23:56:00,53.3,33.0,29.39,ESE,112,10.3,11.2,46,99.99,,,30.72,Rainwise IP-100,2013-05-24 04:56:00,